| time (UTC) | temp C | wind direction | speed KPH | gust KPH | rain 1hr cm | rain 24hr cm | rain mn cm | humidity % | barometer mb |
| 20260508083051 | 7 | 75 | 1.6 | 3.2 | 0.00 | 0.00 | 0.00 | 62 | 1018.0 |
| 20260508082530 | 7 | 35 | 0.0 | 4.8 | 0.00 | 0.00 | 0.00 | 61 | 1018.0 |
| 20260508082030 | 7 | 59 | 1.6 | 6.4 | 0.00 | 0.00 | 0.00 | 61 | 1018.1 |
| 20260508081547 | 7 | 0 | 3.2 | 6.4 | 0.00 | 0.00 | 0.00 | 60 | 1018.1 |
| 20260508081034 | 7 | 62 | 1.6 | 6.4 | 0.00 | 0.00 | 0.00 | 60 | 1018.1 |
| 20260508080531 | 7 | 39 | 1.6 | 6.4 | 0.00 | 0.00 | 0.00 | 58 | 1018.2 |
| 20260508080058 | 6 | 0 | 0.0 | 8.0 | 0.00 | 0.00 | 0.00 | 61 | 1018.1 |
| 20260508075533 | 6 | 355 | 0.0 | 8.0 | 0.00 | 0.00 | 0.00 | 61 | 1018.1 |
| 20260508075033 | 6 | 104 | 1.6 | 8.0 | 0.00 | 0.00 | 0.00 | 63 | 1018.1 |
| 20260508074542 | 6 | 281 | 3.2 | 6.4 | 0.00 | 0.00 | 0.00 | 62 | 1018.2 |
| 20260508074032 | 6 | 49 | 1.6 | 4.8 | 0.00 | 0.00 | 0.00 | 62 | 1018.2 |
| 20260508073530 | 6 | 45 | 1.6 | 4.8 | 0.00 | 0.00 | 0.00 | 62 | 1018.0 |
| 20260508073055 | 6 | 0 | 1.6 | 3.2 | 0.00 | 0.00 | 0.00 | 59 | 1018.1 |
| 20260508072531 | 6 | 57 | 0.0 | 3.2 | 0.00 | 0.00 | 0.00 | 62 | 1018.1 |
| 20260508072032 | 6 | 47 | 0.0 | 3.2 | 0.00 | 0.00 | 0.00 | 61 | 1018.1 |
| 20260508071543 | 6 | 360 | 0.0 | 3.2 | 0.00 | 0.00 | 0.00 | 61 | 1018.1 |
| 20260508071030 | 5 | 25 | 0.0 | 3.2 | 0.00 | 0.00 | 0.00 | 63 | 1018.1 |
| 20260508070530 | 5 | 60 | 0.0 | 4.8 | 0.00 | 0.00 | 0.00 | 65 | 1018.1 |
| 20260508070048 | 5 | 47 | 0.0 | 4.8 | 0.00 | 0.00 | 0.00 | 65 | 1018.2 |
| 20260508065532 | 5 | 0 | 0.0 | 1.6 | 0.00 | 0.00 | 0.00 | 65 | 1018.1 |
| 20260508065029 | 5 | 0 | 0.0 | 4.8 | 0.00 | 0.00 | 0.00 | 66 | 1018.1 |
| 20260508064549 | 5 | 84 | 0.0 | 4.8 | 0.00 | 0.00 | 0.00 | 66 | 1018.2 |
| 20260508064029 | 5 | 31 | 0.0 | 3.2 | 0.00 | 0.00 | 0.00 | 66 | 1018.2 |
| 20260508063532 | 5 | 0 | 0.0 | 3.2 | 0.00 | 0.00 | 0.00 | 67 | 1018.3 |
| 20260508063044 | 5 | 0 | 0.0 | 0.0 | 0.00 | 0.00 | 0.00 | 66 | 1018.4 |
| 20260508062532 | 5 | 0 | 0.0 | 0.0 | 0.00 | 0.00 | 0.00 | 68 | 1018.4 |
| 20260508062031 | 4 | 0 | 0.0 | 0.0 | 0.00 | 0.00 | 0.00 | 69 | 1018.4 |
| 20260508061543 | 4 | 0 | 0.0 | 1.6 | 0.00 | 0.00 | 0.00 | 68 | 1018.4 |
| 20260508061035 | 4 | 0 | 0.0 | 1.6 | 0.00 | 0.00 | 0.00 | 69 | 1018.5 |
| 20260508060532 | 4 | 0 | 0.0 | 3.2 | 0.00 | 0.00 | 0.00 | 66 | 1018.5 |
| 20260508060042 | 4 | 65 | 0.0 | 3.2 | 0.00 | 0.00 | 0.00 | 69 | 1018.5 |
| 20260508055532 | 5 | 46 | 0.0 | 3.2 | 0.00 | 0.00 | 0.00 | 69 | 1018.5 |
| 20260508055032 | 4 | 0 | 0.0 | 3.2 | 0.00 | 0.00 | 0.00 | 71 | 1018.4 |
| 20260508054547 | 4 | 50 | 0.0 | 3.2 | 0.00 | 0.00 | 0.00 | 72 | 1018.4 |
| 20260508054033 | 4 | 32 | 0.0 | 3.2 | 0.00 | 0.00 | 0.00 | 72 | 1018.4 |
| 20260508053532 | 4 | 0 | 0.0 | 0.0 | 0.00 | 0.00 | 0.00 | 71 | 1018.5 |
| 20260508053052 | 4 | 0 | 0.0 | 0.0 | 0.00 | 0.00 | 0.00 | 73 | 1018.4 |
| 20260508052533 | 3 | 0 | 0.0 | 0.0 | 0.00 | 0.00 | 0.00 | 74 | 1018.4 |
| 20260508052033 | 4 | 0 | 0.0 | 0.0 | 0.00 | 0.00 | 0.00 | 74 | 1018.4 |
| 20260508051546 | 4 | 0 | 0.0 | 0.0 | 0.00 | 0.00 | 0.00 | 74 | 1018.4 |
| 20260508051033 | 4 | 0 | 0.0 | 0.0 | 0.00 | 0.00 | 0.00 | 73 | 1018.3 |
| 20260508050533 | 4 | 0 | 0.0 | 0.0 | 0.00 | 0.00 | 0.00 | 72 | 1018.4 |
| 20260508050052 | 5 | 0 | 0.0 | 0.0 | 0.00 | 0.00 | 0.00 | 72 | 1018.3 |
| 20260508045532 | 5 | 0 | 0.0 | 0.0 | 0.00 | 0.00 | 0.00 | 71 | 1018.4 |
| 20260508045032 | 5 | 0 | 0.0 | 0.0 | 0.00 | 0.00 | 0.00 | 72 | 1018.3 |
| 20260508044543 | 5 | 0 | 0.0 | 0.0 | 0.00 | 0.00 | 0.00 | 71 | 1018.3 |
| 20260508044033 | 5 | 0 | 0.0 | 0.0 | 0.00 | 0.00 | 0.00 | 72 | 1018.4 |
| 20260508043532 | 5 | 0 | 0.0 | 0.0 | 0.00 | 0.00 | 0.00 | 73 | 1018.3 |
| 20260508043040 | 4 | 0 | 0.0 | 0.0 | 0.00 | 0.00 | 0.00 | 76 | 1018.4 |
| 20260508042529 | 3 | 0 | 0.0 | 0.0 | 0.00 | 0.00 | 0.00 | 77 | 1018.4 |
| 20260508042029 | 3 | 0 | 0.0 | 0.0 | 0.00 | 0.00 | 0.00 | 78 | 1018.4 |
| 20260508041544 | 3 | 0 | 0.0 | 0.0 | 0.00 | 0.00 | 0.00 | 78 | 1018.4 |
| 20260508041033 | 2 | 0 | 0.0 | 0.0 | 0.00 | 0.00 | 0.00 | 80 | 1018.4 |
| 20260508040533 | 2 | 0 | 0.0 | 0.0 | 0.00 | 0.00 | 0.00 | 81 | 1018.4 |
| 20260508040054 | 2 | 0 | 0.0 | 0.0 | 0.00 | 0.00 | 0.00 | 81 | 1018.3 |
| 20260508035532 | 2 | 0 | 0.0 | 0.0 | 0.00 | 0.00 | 0.00 | 81 | 1018.4 |
| 20260508035029 | 2 | 0 | 0.0 | 0.0 | 0.00 | 0.00 | 0.00 | 81 | 1018.4 |
| 20260508034545 | 2 | 0 | 0.0 | 0.0 | 0.00 | 0.00 | 0.00 | 81 | 1018.5 |
| 20260508034032 | 2 | 0 | 0.0 | 0.0 | 0.00 | 0.00 | 0.00 | 81 | 1018.5 |
| 20260508033534 | 2 | 0 | 0.0 | 0.0 | 0.00 | 0.00 | 0.00 | 81 | 1018.5 |
| 20260508033048 | 1 | 0 | 0.0 | 0.0 | 0.00 | 0.00 | 0.00 | 81 | 1018.5 |
| 20260508032530 | 1 | 0 | 0.0 | 0.0 | 0.00 | 0.00 | 0.00 | 81 | 1018.6 |
| 20260508032032 | 1 | 0 | 0.0 | 0.0 | 0.00 | 0.00 | 0.00 | 81 | 1018.6 |
| 20260508031546 | 1 | 0 | 0.0 | 0.0 | 0.00 | 0.00 | 0.00 | 81 | 1018.5 |
| 20260508031030 | 1 | 0 | 0.0 | 1.6 | 0.00 | 0.00 | 0.00 | 81 | 1018.6 |
| 20260508030530 | 1 | 0 | 0.0 | 1.6 | 0.00 | 0.00 | 0.00 | 82 | 1018.6 |
| 20260508030052 | 1 | 0 | 0.0 | 1.6 | 0.00 | 0.00 | 0.00 | 82 | 1018.7 |
| 20260508025531 | 1 | 313 | 0.0 | 1.6 | 0.00 | 0.00 | 0.00 | 82 | 1018.7 |
| 20260508025030 | 1 | 57 | 0.0 | 3.2 | 0.00 | 0.00 | 0.00 | 83 | 1018.7 |
| 20260508024544 | 1 | 301 | 0.0 | 3.2 | 0.00 | 0.00 | 0.00 | 84 | 1018.8 |
| 20260508024034 | 1 | 295 | 0.0 | 1.6 | 0.00 | 0.00 | 0.00 | 83 | 1018.8 |
| 20260508023530 | 1 | 0 | 0.0 | 3.2 | 0.00 | 0.00 | 0.00 | 83 | 1018.7 |
| 20260508023042 | 1 | 295 | 0.0 | 3.2 | 0.00 | 0.00 | 0.00 | 83 | 1018.8 |
| 20260508022529 | 1 | 0 | 0.0 | 1.6 | 0.00 | 0.00 | 0.00 | 83 | 1018.8 |
| 20260508022030 | 1 | 279 | 0.0 | 1.6 | 0.00 | 0.00 | 0.00 | 84 | 1018.9 |
| 20260508021544 | 1 | 0 | 0.0 | 0.0 | 0.00 | 0.00 | 0.00 | 84 | 1018.8 |
| 20260508021033 | 1 | 0 | 0.0 | 0.0 | 0.00 | 0.00 | 0.00 | 84 | 1018.8 |
| 20260508020532 | 1 | 0 | 0.0 | 0.0 | 0.00 | 0.00 | 0.00 | 84 | 1018.9 |
| 20260508020041 | 1 | 0 | 0.0 | 0.0 | 0.00 | 0.00 | 0.00 | 84 | 1018.9 |
| 20260508015532 | 1 | 0 | 0.0 | 0.0 | 0.00 | 0.00 | 0.00 | 84 | 1018.9 |
| 20260508015032 | 1 | 0 | 0.0 | 0.0 | 0.00 | 0.00 | 0.00 | 84 | 1018.8 |
| 20260508014542 | 1 | 0 | 0.0 | 0.0 | 0.00 | 0.00 | 0.00 | 84 | 1018.9 |
| 20260508014032 | 1 | 0 | 0.0 | 0.0 | 0.00 | 0.00 | 0.00 | 83 | 1019.0 |
| 20260508013529 | 1 | 0 | 0.0 | 0.0 | 0.00 | 0.00 | 0.00 | 83 | 1018.9 |
| 20260508013046 | 1 | 0 | 0.0 | 0.0 | 0.00 | 0.00 | 0.00 | 83 | 1018.9 |
| 20260508012529 | 1 | 0 | 0.0 | 0.0 | 0.00 | 0.00 | 0.00 | 83 | 1018.8 |
| 20260508012033 | 1 | 0 | 0.0 | 0.0 | 0.00 | 0.00 | 0.00 | 82 | 1018.9 |
| 20260508011540 | 1 | 0 | 0.0 | 0.0 | 0.00 | 0.00 | 0.00 | 82 | 1018.9 |
| 20260508011032 | 1 | 0 | 0.0 | 1.6 | 0.00 | 0.00 | 0.00 | 82 | 1018.9 |
| 20260508010532 | 1 | 0 | 0.0 | 1.6 | 0.00 | 0.00 | 0.00 | 82 | 1018.9 |
| 20260508010041 | 1 | 0 | 0.0 | 1.6 | 0.00 | 0.00 | 0.00 | 82 | 1019.0 |
| 20260508005533 | 1 | 288 | 0.0 | 3.2 | 0.00 | 0.00 | 0.00 | 82 | 1018.9 |
| 20260508005033 | 1 | 0 | 0.0 | 3.2 | 0.00 | 0.00 | 0.00 | 82 | 1019.0 |
| 20260508004550 | 1 | 0 | 0.0 | 3.2 | 0.00 | 0.00 | 0.00 | 82 | 1019.0 |
| 20260508004029 | 1 | 0 | 0.0 | 3.2 | 0.00 | 0.00 | 0.00 | 82 | 1018.9 |
| 20260508003532 | 1 | 289 | 0.0 | 1.6 | 0.00 | 0.00 | 0.00 | 81 | 1019.0 |
| 20260508003048 | 1 | 0 | 0.0 | 1.6 | 0.00 | 0.00 | 0.00 | 81 | 1018.9 |
| 20260508002530 | 1 | 281 | 0.0 | 1.6 | 0.00 | 0.00 | 0.00 | 81 | 1019.0 |
| 20260508002030 | 1 | 0 | 0.0 | 1.6 | 0.00 | 0.00 | 0.00 | 81 | 1019.0 |
| 20260508001548 | 1 | 276 | 0.0 | 3.2 | 0.00 | 0.00 | 0.00 | 81 | 1019.1 |
| 20260508001029 | 2 | 297 | 0.0 | 3.2 | 0.00 | 0.00 | 0.00 | 81 | 1019.2 |
| 20260508000534 | 2 | 296 | 1.6 | 3.2 | 0.00 | 0.00 | 0.00 | 81 | 1019.1 |
| 20260508000052 | 2 | 0 | 0.0 | 3.2 | 0.00 | 0.00 | 0.00 | 81 | 1019.2 |
| 20260507235532 | 2 | 0 | 0.0 | 3.2 | 0.00 | 0.00 | 0.00 | 81 | 1019.2 |
| 20260507235030 | 2 | 0 | 0.0 | 3.2 | 0.00 | 0.00 | 0.00 | 81 | 1019.2 |
| 20260507234552 | 2 | 0 | 0.0 | 1.6 | 0.00 | 0.00 | 0.00 | 81 | 1019.2 |
| 20260507234029 | 2 | 0 | 0.0 | 1.6 | 0.00 | 0.00 | 0.00 | 81 | 1019.3 |
| 20260507233532 | 2 | 281 | 0.0 | 3.2 | 0.00 | 0.00 | 0.00 | 80 | 1019.3 |
| 20260507233109 | 2 | 288 | 1.6 | 3.2 | 0.00 | 0.00 | 0.00 | 80 | 1019.2 |
| 20260507232532 | 2 | 269 | 1.6 | 3.2 | 0.00 | 0.00 | 0.00 | 80 | 1019.4 |
| 20260507232031 | 2 | 0 | 0.0 | 0.0 | 0.00 | 0.00 | 0.00 | 79 | 1019.3 |
| 20260507231545 | 2 | 0 | 0.0 | 0.0 | 0.00 | 0.00 | 0.00 | 79 | 1019.3 |
| 20260507231030 | 2 | 0 | 0.0 | 0.0 | 0.00 | 0.00 | 0.00 | 79 | 1019.4 |
| 20260507230532 | 2 | 0 | 0.0 | 0.0 | 0.00 | 0.00 | 0.00 | 79 | 1019.4 |
| 20260507230046 | 2 | 0 | 0.0 | 0.0 | 0.00 | 0.00 | 0.00 | 79 | 1019.5 |
| 20260507225531 | 2 | 0 | 0.0 | 0.0 | 0.00 | 0.00 | 0.00 | 78 | 1019.5 |
| 20260507225033 | 2 | 0 | 0.0 | 0.0 | 0.00 | 0.00 | 0.00 | 78 | 1019.4 |
| 20260507224549 | 2 | 0 | 0.0 | 0.0 | 0.00 | 0.00 | 0.00 | 78 | 1019.3 |
| 20260507224030 | 3 | 0 | 0.0 | 0.0 | 0.00 | 0.00 | 0.00 | 78 | 1019.5 |
| 20260507223533 | 3 | 0 | 0.0 | 0.0 | 0.00 | 0.00 | 0.00 | 78 | 1019.4 |
| 20260507223058 | 3 | 0 | 0.0 | 0.0 | 0.00 | 0.00 | 0.00 | 78 | 1019.5 |
| 20260507222534 | 3 | 0 | 0.0 | 0.0 | 0.00 | 0.00 | 0.00 | 77 | 1019.5 |
| 20260507222032 | 3 | 0 | 0.0 | 0.0 | 0.00 | 0.00 | 0.00 | 77 | 1019.4 |
| 20260507221544 | 3 | 0 | 0.0 | 0.0 | 0.00 | 0.00 | 0.00 | 77 | 1019.4 |
| 20260507221031 | 3 | 0 | 0.0 | 0.0 | 0.00 | 0.00 | 0.00 | 76 | 1019.4 |
| 20260507220531 | 3 | 0 | 0.0 | 0.0 | 0.00 | 0.00 | 0.00 | 76 | 1019.4 |
| 20260507220042 | 3 | 0 | 0.0 | 0.0 | 0.00 | 0.00 | 0.00 | 75 | 1019.5 |
| 20260507215530 | 3 | 0 | 0.0 | 0.0 | 0.00 | 0.00 | 0.00 | 75 | 1019.4 |
| 20260507215033 | 3 | 0 | 0.0 | 0.0 | 0.00 | 0.00 | 0.00 | 74 | 1019.5 |
| 20260507214547 | 3 | 0 | 0.0 | 0.0 | 0.00 | 0.00 | 0.00 | 74 | 1019.5 |
| 20260507214034 | 3 | 0 | 0.0 | 0.0 | 0.00 | 0.00 | 0.00 | 74 | 1019.5 |
| 20260507213530 | 3 | 0 | 0.0 | 0.0 | 0.00 | 0.00 | 0.00 | 74 | 1019.4 |
| 20260507213045 | 3 | 0 | 0.0 | 0.0 | 0.00 | 0.00 | 0.00 | 74 | 1019.4 |
| 20260507212532 | 3 | 0 | 0.0 | 0.0 | 0.00 | 0.00 | 0.00 | 74 | 1019.3 |
| 20260507212032 | 3 | 0 | 0.0 | 0.0 | 0.00 | 0.00 | 0.00 | 74 | 1019.3 |
| 20260507211555 | 3 | 0 | 0.0 | 0.0 | 0.00 | 0.00 | 0.00 | 74 | 1019.3 |
| 20260507211031 | 3 | 0 | 0.0 | 0.0 | 0.00 | 0.00 | 0.00 | 74 | 1019.2 |
| 20260507210530 | 3 | 0 | 0.0 | 0.0 | 0.00 | 0.00 | 0.00 | 74 | 1019.3 |
| 20260507210104 | 3 | 0 | 0.0 | 0.0 | 0.00 | 0.00 | 0.00 | 74 | 1019.2 |
| 20260507205529 | 3 | 0 | 0.0 | 0.0 | 0.00 | 0.00 | 0.00 | 74 | 1019.3 |
| 20260507205030 | 3 | 0 | 0.0 | 0.0 | 0.00 | 0.00 | 0.00 | 74 | 1019.3 |
| 20260507204547 | 3 | 0 | 0.0 | 0.0 | 0.00 | 0.00 | 0.00 | 74 | 1019.2 |
| 20260507204029 | 3 | 0 | 0.0 | 0.0 | 0.00 | 0.00 | 0.00 | 74 | 1019.2 |
| 20260507203530 | 3 | 0 | 0.0 | 0.0 | 0.00 | 0.00 | 0.00 | 74 | 1019.2 |
| 20260507203040 | 3 | 0 | 0.0 | 0.0 | 0.00 | 0.00 | 0.00 | 73 | 1019.1 |
| 20260507202529 | 3 | 0 | 0.0 | 0.0 | 0.00 | 0.00 | 0.00 | 73 | 1019.1 |
| 20260507202031 | 3 | 0 | 0.0 | 0.0 | 0.00 | 0.00 | 0.00 | 73 | 1018.9 |
| 20260507201545 | 3 | 0 | 0.0 | 0.0 | 0.00 | 0.00 | 0.00 | 72 | 1019.0 |
| 20260507201032 | 3 | 0 | 0.0 | 0.0 | 0.00 | 0.00 | 0.00 | 72 | 1019.0 |
| 20260507200529 | 3 | 0 | 0.0 | 0.0 | 0.00 | 0.00 | 0.00 | 72 | 1019.0 |
| 20260507200052 | 3 | 0 | 0.0 | 0.0 | 0.00 | 0.00 | 0.00 | 72 | 1019.0 |
| 20260507195532 | 3 | 0 | 0.0 | 0.0 | 0.00 | 0.00 | 0.00 | 72 | 1018.9 |
| 20260507195029 | 3 | 0 | 0.0 | 0.0 | 0.00 | 0.00 | 0.00 | 71 | 1018.8 |
| 20260507194550 | 3 | 0 | 0.0 | 0.0 | 0.00 | 0.00 | 0.00 | 71 | 1018.7 |
| 20260507194030 | 4 | 0 | 0.0 | 0.0 | 0.00 | 0.00 | 0.00 | 71 | 1018.8 |
| 20260507193530 | 3 | 0 | 0.0 | 0.0 | 0.00 | 0.00 | 0.00 | 72 | 1018.7 |
| 20260507193047 | 4 | 0 | 0.0 | 1.6 | 0.00 | 0.00 | 0.00 | 72 | 1018.6 |
| 20260507192529 | 3 | 0 | 0.0 | 3.2 | 0.00 | 0.00 | 0.00 | 72 | 1018.5 |
| 20260507192029 | 4 | 282 | 0.0 | 3.2 | 0.00 | 0.00 | 0.00 | 72 | 1018.6 |
| 20260507191547 | 4 | 265 | 0.0 | 1.6 | 0.00 | 0.00 | 0.00 | 71 | 1018.5 |
| 20260507191032 | 4 | 0 | 0.0 | 0.0 | 0.00 | 0.00 | 0.00 | 71 | 1018.4 |
| 20260507190530 | 4 | 0 | 0.0 | 0.0 | 0.00 | 0.00 | 0.00 | 71 | 1018.4 |
| 20260507190056 | 4 | 0 | 0.0 | 0.0 | 0.00 | 0.00 | 0.00 | 71 | 1018.4 |
| 20260507185532 | 4 | 0 | 0.0 | 0.0 | 0.00 | 0.00 | 0.00 | 71 | 1018.4 |
| 20260507185034 | 4 | 0 | 0.0 | 0.0 | 0.00 | 0.00 | 0.00 | 71 | 1018.3 |
| 20260507184546 | 4 | 0 | 0.0 | 0.0 | 0.00 | 0.00 | 0.00 | 71 | 1018.2 |
| 20260507184032 | 4 | 0 | 0.0 | 0.0 | 0.00 | 0.00 | 0.00 | 71 | 1018.2 |
| 20260507183531 | 4 | 0 | 0.0 | 0.0 | 0.00 | 0.00 | 0.00 | 70 | 1018.2 |
| 20260507183050 | 4 | 0 | 0.0 | 0.0 | 0.00 | 0.00 | 0.00 | 71 | 1018.3 |
| 20260507182530 | 4 | 0 | 0.0 | 0.0 | 0.00 | 0.00 | 0.00 | 70 | 1018.2 |
| 20260507182030 | 4 | 0 | 0.0 | 0.0 | 0.00 | 0.00 | 0.00 | 70 | 1018.3 |
| 20260507181544 | 4 | 0 | 0.0 | 0.0 | 0.00 | 0.00 | 0.00 | 70 | 1018.2 |
| 20260507181032 | 4 | 0 | 0.0 | 0.0 | 0.00 | 0.00 | 0.00 | 70 | 1018.2 |
| 20260507180530 | 4 | 0 | 0.0 | 1.6 | 0.00 | 0.00 | 0.00 | 69 | 1018.3 |
| 20260507180046 | 4 | 0 | 0.0 | 1.6 | 0.00 | 0.00 | 0.00 | 69 | 1018.3 |
| 20260507175530 | 5 | 0 | 0.0 | 1.6 | 0.00 | 0.00 | 0.00 | 68 | 1018.3 |
| 20260507175030 | 5 | 243 | 0.0 | 1.6 | 0.00 | 0.00 | 0.00 | 69 | 1018.3 |
| 20260507174554 | 5 | 0 | 0.0 | 1.6 | 0.00 | 0.00 | 0.00 | 70 | 1018.3 |
| 20260507174030 | 5 | 0 | 0.0 | 0.0 | 0.00 | 0.00 | 0.00 | 69 | 1018.3 |
| 20260507173530 | 5 | 0 | 0.0 | 0.0 | 0.00 | 0.00 | 0.00 | 68 | 1018.2 |
| 20260507173048 | 5 | 0 | 0.0 | 0.0 | 0.00 | 0.00 | 0.00 | 68 | 1018.1 |
| 20260507172530 | 5 | 0 | 0.0 | 0.0 | 0.00 | 0.00 | 0.00 | 67 | 1018.1 |
| 20260507172029 | 5 | 0 | 0.0 | 1.6 | 0.00 | 0.00 | 0.00 | 67 | 1018.1 |
| 20260507171542 | 5 | 0 | 0.0 | 1.6 | 0.00 | 0.00 | 0.00 | 66 | 1017.8 |
| 20260507171032 | 6 | 0 | 0.0 | 8.0 | 0.00 | 0.00 | 0.00 | 64 | 1017.8 |
| 20260507170531 | 6 | 0 | 0.0 | 8.0 | 0.00 | 0.00 | 0.00 | 62 | 1017.8 |
| 20260507170048 | 6 | 0 | 1.6 | 9.7 | 0.00 | 0.00 | 0.00 | 60 | 1017.9 |
| 20260507165531 | 6 | 51 | 1.6 | 9.7 | 0.00 | 0.00 | 0.00 | 59 | 1017.9 |
| 20260507165029 | 6 | 154 | 1.6 | 9.7 | 0.00 | 0.00 | 0.00 | 59 | 1018.0 |
| 20260507164603 | 7 | 37 | 1.6 | 4.8 | 0.00 | 0.00 | 0.00 | 59 | 1018.0 |
| 20260507164030 | 7 | 0 | 0.0 | 14.5 | 0.00 | 0.00 | 0.00 | 58 | 1017.9 |
| 20260507163533 | 7 | 77 | 3.2 | 14.5 | 0.00 | 0.00 | 0.00 | 55 | 1017.8 |
| 20260507163047 | 7 | 136 | 3.2 | 14.5 | 0.00 | 0.00 | 0.00 | 55 | 1017.7 |
| 20260507162530 | 8 | 276 | 1.6 | 14.5 | 0.00 | 0.00 | 0.00 | 52 | 1017.7 |
| 20260507162030 | 8 | 27 | 4.8 | 12.9 | 0.00 | 0.00 | 0.00 | 52 | 1017.8 |
| 20260507161556 | 8 | 0 | 1.6 | 11.3 | 0.00 | 0.00 | 0.00 | 53 | 1017.8 |
| 20260507161030 | 8 | 141 | 3.2 | 11.3 | 0.00 | 0.00 | 0.00 | 53 | 1017.8 |
| 20260507160530 | 8 | 151 | 3.2 | 11.3 | 0.00 | 0.00 | 0.00 | 51 | 1017.8 |
| 20260507160044 | 8 | 142 | 0.0 | 12.9 | 0.00 | 0.00 | 0.00 | 54 | 1017.7 |
| 20260507155529 | 8 | 155 | 3.2 | 12.9 | 0.00 | 0.00 | 0.00 | 54 | 1017.8 |
| 20260507155030 | 8 | 278 | 4.8 | 12.9 | 0.00 | 0.00 | 0.00 | 53 | 1017.7 |
| 20260507154549 | 8 | 158 | 3.2 | 11.3 | 0.00 | 0.00 | 0.00 | 53 | 1017.6 |
| 20260507154030 | 8 | 333 | 3.2 | 8.0 | 0.00 | 0.00 | 0.00 | 52 | 1017.6 |
| 20260507153530 | 8 | 40 | 1.6 | 16.1 | 0.00 | 0.00 | 0.00 | 54 | 1017.6 |
| 20260507153045 | 8 | 278 | 4.8 | 16.1 | 0.00 | 0.00 | 0.00 | 53 | 1017.6 |
| 20260507152530 | 8 | 44 | 3.2 | 14.5 | 0.00 | 0.00 | 0.00 | 54 | 1017.6 |
| 20260507152031 | 8 | 0 | 3.2 | 12.9 | 0.00 | 0.00 | 0.00 | 55 | 1017.5 |
| 20260507151540 | 8 | 68 | 4.8 | 12.9 | 0.00 | 0.00 | 0.00 | 54 | 1017.4 |
| 20260507151030 | 9 | 330 | 1.6 | 8.0 | 0.00 | 0.00 | 0.00 | 56 | 1017.3 |
| 20260507150530 | 8 | 155 | 3.2 | 8.0 | 0.00 | 0.00 | 0.00 | 57 | 1017.4 |
| 20260507150047 | 8 | 131 | 3.2 | 11.3 | 0.00 | 0.00 | 0.00 | 56 | 1017.3 |
| 20260507145529 | 8 | 64 | 3.2 | 11.3 | 0.00 | 0.00 | 0.00 | 57 | 1017.3 |
| 20260507145032 | 8 | 351 | 3.2 | 9.7 | 0.00 | 0.00 | 0.00 | 58 | 1017.2 |
| 20260507144547 | 9 | 37 | 3.2 | 19.3 | 0.00 | 0.00 | 0.00 | 57 | 1017.2 |
| 20260507144029 | 8 | 359 | 3.2 | 19.3 | 0.00 | 0.00 | 0.00 | 59 | 1017.1 |
| 20260507143529 | 8 | 114 | 1.6 | 16.1 | 0.00 | 0.00 | 0.00 | 59 | 1017.2 |
| 20260507143049 | 8 | 29 | 3.2 | 16.1 | 0.00 | 0.00 | 0.00 | 60 | 1017.1 |
| 20260507142530 | 9 | 25 | 3.2 | 8.0 | 0.00 | 0.00 | 0.00 | 56 | 1017.2 |
| 20260507142031 | 9 | 349 | 3.2 | 8.0 | 0.00 | 0.00 | 0.00 | 56 | 1017.2 |
| 20260507141540 | 9 | 57 | 1.6 | 11.3 | 0.00 | 0.00 | 0.00 | 57 | 1017.2 |
| 20260507141032 | 8 | 88 | 3.2 | 20.9 | 0.00 | 0.00 | 0.00 | 56 | 1017.3 |
| 20260507140529 | 8 | 88 | 3.2 | 20.9 | 0.00 | 0.00 | 0.00 | 56 | 1017.2 |
| 20260507140046 | 8 | 158 | 4.8 | 20.9 | 0.00 | 0.00 | 0.00 | 56 | 1017.1 |
| 20260507135529 | 9 | 120 | 3.2 | 19.3 | 0.00 | 0.00 | 0.00 | 55 | 1017.1 |
| 20260507135029 | 8 | 202 | 4.8 | 9.7 | 0.00 | 0.00 | 0.00 | 58 | 1017.1 |
| 20260507134545 | 8 | 27 | 1.6 | 12.9 | 0.00 | 0.00 | 0.00 | 58 | 1017.1 |
| 20260507134031 | 8 | 60 | 3.2 | 12.9 | 0.00 | 0.00 | 0.00 | 58 | 1017.0 |
| 20260507133531 | 9 | 349 | 3.2 | 6.4 | 0.00 | 0.00 | 0.00 | 58 | 1016.8 |
| 20260507133048 | 9 | 107 | 1.6 | 8.0 | 0.00 | 0.00 | 0.00 | 61 | 1017.1 |
| 20260507132533 | 8 | 25 | 1.6 | 11.3 | 0.00 | 0.00 | 0.00 | 61 | 1017.1 |
| 20260507132030 | 8 | 335 | 0.0 | 11.3 | 0.00 | 0.00 | 0.00 | 62 | 1017.1 |
| 20260507131541 | 8 | 200 | 3.2 | 11.3 | 0.00 | 0.00 | 0.00 | 61 | 1017.1 |
| 20260507131030 | 8 | 82 | 0.0 | 11.3 | 0.00 | 0.00 | 0.00 | 64 | 1017.0 |
| 20260507130533 | 8 | 43 | 1.6 | 8.0 | 0.00 | 0.00 | 0.00 | 66 | 1016.8 |
| 20260507130043 | 7 | 63 | 1.6 | 8.0 | 0.00 | 0.00 | 0.00 | 67 | 1016.9 |
| 20260507125531 | 7 | 0 | 1.6 | 11.3 | 0.00 | 0.00 | 0.00 | 67 | 1017.0 |
| 20260507125029 | 7 | 8 | 1.6 | 11.3 | 0.00 | 0.00 | 0.00 | 68 | 1016.8 |
| 20260507124540 | 7 | 155 | 3.2 | 12.9 | 0.00 | 0.00 | 0.00 | 65 | 1016.8 |
| 20260507124030 | 8 | 46 | 3.2 | 12.9 | 0.00 | 0.00 | 0.00 | 59 | 1016.6 |
| 20260507123529 | 7 | 131 | 3.2 | 9.7 | 0.00 | 0.00 | 0.00 | 57 | 1016.8 |
| 20260507123044 | 7 | 112 | 3.2 | 9.7 | 0.00 | 0.00 | 0.00 | 58 | 1016.7 |
| 20260507122535 | 7 | 56 | 4.8 | 11.3 | 0.00 | 0.00 | 0.00 | 59 | 1016.6 |
| 20260507122029 | 7 | 126 | 1.6 | 11.3 | 0.00 | 0.00 | 0.00 | 59 | 1016.6 |
| 20260507121542 | 7 | 58 | 3.2 | 8.0 | 0.00 | 0.00 | 0.00 | 59 | 1016.7 |
| 20260507121030 | 7 | 44 | 1.6 | 6.4 | 0.00 | 0.00 | 0.00 | 59 | 1016.6 |
| 20260507120530 | 7 | 141 | 3.2 | 6.4 | 0.00 | 0.00 | 0.00 | 62 | 1016.6 |
| 20260507120041 | 7 | 72 | 1.6 | 6.4 | 0.00 | 0.00 | 0.00 | 57 | 1016.4 |
| 20260507115532 | 7 | 142 | 0.0 | 8.0 | 0.00 | 0.00 | 0.00 | 60 | 1016.5 |
| 20260507115030 | 7 | 0 | 0.0 | 9.7 | 0.00 | 0.00 | 0.00 | 61 | 1016.5 |
| 20260507114559 | 7 | 26 | 3.2 | 9.7 | 0.00 | 0.00 | 0.00 | 60 | 1016.5 |
| 20260507114030 | 7 | 134 | 1.6 | 9.7 | 0.00 | 0.00 | 0.00 | 61 | 1016.4 |
| 20260507113531 | 7 | 26 | 1.6 | 12.9 | 0.00 | 0.00 | 0.00 | 60 | 1016.4 |
| 20260507113104 | 7 | 0 | 1.6 | 12.9 | 0.00 | 0.00 | 0.00 | 60 | 1016.4 |
| 20260507112532 | 7 | 58 | 3.2 | 12.9 | 0.00 | 0.00 | 0.00 | 59 | 1016.3 |
| 20260507112032 | 7 | 79 | 1.6 | 20.9 | 0.00 | 0.00 | 0.00 | 57 | 1016.3 |
| 20260507111545 | 7 | 123 | 3.2 | 20.9 | 0.00 | 0.00 | 0.00 | 54 | 1016.2 |
| 20260507111029 | 7 | 79 | 4.8 | 20.9 | 0.00 | 0.00 | 0.00 | 54 | 1016.1 |
| 20260507110529 | 7 | 60 | 0.0 | 6.4 | 0.00 | 0.00 | 0.00 | 61 | 1016.0 |
| 20260507110047 | 7 | 76 | 3.2 | 8.0 | 0.00 | 0.00 | 0.00 | 57 | 1015.9 |
| 20260507105530 | 7 | 285 | 1.6 | 8.0 | 0.00 | 0.00 | 0.00 | 56 | 1015.8 |
| 20260507105032 | 7 | 46 | 1.6 | 6.4 | 0.00 | 0.00 | 0.00 | 54 | 1015.8 |
| 20260507104543 | 7 | 0 | 0.0 | 8.0 | 0.00 | 0.00 | 0.00 | 55 | 1015.9 |
| 20260507104031 | 6 | 0 | 1.6 | 8.0 | 0.00 | 0.00 | 0.00 | 58 | 1015.9 |
| 20260507103531 | 6 | 167 | 0.0 | 8.0 | 0.00 | 0.00 | 0.00 | 62 | 1015.8 |
| 20260507103053 | 6 | 29 | 3.2 | 9.7 | 0.00 | 0.00 | 0.00 | 65 | 1015.8 |
| 20260507102530 | 6 | 23 | 3.2 | 9.7 | 0.00 | 0.00 | 0.00 | 61 | 1015.7 |
| 20260507102031 | 6 | 34 | 1.6 | 9.7 | 0.00 | 0.00 | 0.00 | 56 | 1015.7 |
| 20260507101547 | 7 | 333 | 0.0 | 9.7 | 0.00 | 0.00 | 0.00 | 56 | 1015.7 |
| 20260507101032 | 7 | 18 | 1.6 | 9.7 | 0.00 | 0.00 | 0.00 | 55 | 1015.6 |
| 20260507100529 | 7 | 48 | 3.2 | 9.7 | 0.00 | 0.00 | 0.00 | 55 | 1015.5 |
| 20260507100045 | 6 | 293 | 3.2 | 9.7 | 0.00 | 0.00 | 0.00 | 57 | 1015.5 |
| 20260507095529 | 5 | 108 | 0.0 | 4.8 | 0.00 | 0.00 | 0.00 | 71 | 1015.4 |
| 20260507095120 | 5 | 0 | 1.6 | 9.7 | 0.00 | 0.00 | 0.00 | 70 | 1015.4 |
| 20260507094543 | 5 | 59 | 1.6 | 9.7 | 0.00 | 0.00 | 0.00 | 71 | 1015.5 |
| 20260507094029 | 5 | 103 | 1.6 | 6.4 | 0.00 | 0.00 | 0.00 | 70 | 1015.4 |
| 20260507093529 | 5 | 0 | 1.6 | 4.8 | 0.00 | 0.00 | 0.00 | 70 | 1015.6 |
| 20260507093041 | 5 | 61 | 0.0 | 4.8 | 0.00 | 0.00 | 0.00 | 71 | 1015.4 |
| 20260507092531 | 5 | 71 | 1.6 | 4.8 | 0.00 | 0.00 | 0.00 | 71 | 1015.4 |
| 20260507092029 | 5 | 0 | 0.0 | 6.4 | 0.00 | 0.00 | 0.00 | 72 | 1015.4 |
| 20260507091543 | 5 | 44 | 1.6 | 6.4 | 0.00 | 0.00 | 0.00 | 71 | 1015.2 |
| 20260507091031 | 5 | 0 | 0.0 | 6.4 | 0.00 | 0.00 | 0.00 | 71 | 1015.2 |
| 20260507090530 | 5 | 0 | 0.0 | 9.7 | 0.00 | 0.00 | 0.00 | 72 | 1015.2 |
| 20260507090045 | 5 | 14 | 1.6 | 9.7 | 0.00 | 0.00 | 0.00 | 71 | 1015.3 |
| 20260507085531 | 5 | 0 | 3.2 | 11.3 | 0.00 | 0.00 | 0.00 | 70 | 1015.2 |
| 20260507085030 | 5 | 23 | 3.2 | 11.3 | 0.00 | 0.00 | 0.00 | 70 | 1015.2 |
| 20260507084546 | 6 | 359 | 0.0 | 4.8 | 0.00 | 0.00 | 0.00 | 71 | 1015.2 |
| 20260507084030 | 5 | 0 | 0.0 | 4.8 | 0.00 | 0.00 | 0.00 | 71 | 1015.1 |
| 20260507083532 | 6 | 0 | 0.0 | 6.4 | 0.00 | 0.00 | 0.00 | 68 | 1015.2 |